Wind_Speed
13 12 11 11 10 10 9 8 8 8 7 7 7 7 8 8 8 8 7 6 6 6 5 5 4 3 3 3 3 3 2 2 2 2 2 2 2 2 3 3 3 3 4
14 14 13 12 12 11 11 10 9 9 9 9 8 8 9 9 9 8 8 7 7 7 7 6 6 5 5 5 5 4 4 3 3 4 3 3 4 4 4 4 4 5 5
16 15 15 14 13 13 12 12 11 10 10 10 10 10 10 10 10 11 9 9 9 8 8 8 8 7 7 6 6 6 5 5 5 5 5 5 5 5 5 5 5 6 6
17 17 16 15 15 14 13 13 13 12 12 12 12 12 12 12 12 12 11 11 10 10 10 9 9 8 8 8 7 8 8 7 7 7 7 7 7 7 7 7 7 7 7
18 18 17 17 16 16 15 14 14 14 14 14 14 14 14 14 14 14 13 13 12 11 11 11 10 10 10 10 9 9 9 9 9 9 9 9 9 8 8 9 9 9 9
19 19 18 18 17 17 17 17 16 16 16 15 15 15 15 15 16 15 15 14 14 14 13 13 12 11 11 11 11 11 11 11 11 11 11 11 11 11 10 10 10 10 10
20 20 19 19 19 19 19 19 19 18 18 18 17 16 16 17 18 17 17 16 16 16 15 15 14 13 13 13 13 13 13 13 13 13 13 13 13 12 12 12 12 12 12
21 20 20 20 20 20 20 20 20 20 20 20 19 19 18 19 19 19 19 18 18 17 17 17 16 15 15 15 15 15 15 15 15 15 15 15 15 15 14 14 14 14 14
22 22 22 21 21 21 21 21 21 22 22 22 22 21 20 21 21 21 20 20 19 19 19 19 18 17 17 17 17 17 17 17 17 17 17 17 17 17 17 17 16 16 16
24 23 23 23 23 23 23 23 23 23 23 23 23 23 23 23 23 23 22 22 21 21 21 21 20 19 19 18 18 18 18 18 18 18 19 19 19 18 18 18 18 19 19
24 24 23 23 24 24 24 24 24 24 24 24 24 24 24 24 24 25 24 24 23 23 22 22 22 21 21 20 20 20 20 19 19 19 20 20 19 19 19 20 20 21 21
25 25 25 25 25 26 26 25 25 26 26 26 26 26 26 26 26 26 26 26 25 25 24 23 23 23 22 22 22 22 22 21 21 21 21 21 21 21 21 21 21 22 22
27 27 27 26 26 27 27 27 27 27 27 27 27 27 27 27 27 28 28 28 27 27 26 26 26 25 24 24 24 24 24 24 23 23 23 23 23 23 23 23 23 23 23
28 29 29 28 28 29 29 29 29 29 29 29 29 29 29 28 29 29 30 30 29 29 28 28 28 27 26 26 26 26 26 26 26 26 25 25 25 25 25 25 25 25 25
29 29 30 30 30 30 30 30 30 30 31 31 31 31 31 30 31 31 32 32 32 31 31 30 30 29 29 29 29 29 29 29 29 28 28 27 27 27 27 27 27 27 27
30 30 31 31 31 32 32 32 32 32 32 32 32 32 32 33 33 33 34 34 33 33 33 33 32 32 31 31 31 31 32 32 31 31 30 30 29 29 29 29 29 29 29
32 31 32 33 33 33 34 33 34 34 34 34 34 34 35 35 35 35 36 36 36 35 35 35 35 35 34 34 34 34 34 34 34 33 32 32 31 31 31 31 31 31 31
34 33 34 34 34 34 35 35 35 35 35 35 35 36 36 36 37 37 37 37 37 37 37 37 37 37 36 36 36 36 36 36 35 34 34 33 33 33 33 33 33 33 33
35 35 35 35 35 35 36 36 37 37 37 37 38 38 38 38 38 38 38 38 39 38 39 39 39 38 38 38 37 37 36 36 35 35 35 35 34 34 34 34 34 34 35
35 35 36 36 36 35 36 37 37 37 37 37 38 39 39 40 39 39 40 40 40 40 40 40 40 40 39 39 38 38 38 37 37 36 36 36 35 35 35 35 35 35 36
35 36 36 36 36 36 37 37 37 37 37 37 37 38 39 40 40 40 40 41 41 41 41 41 42 41 41 41 40 39 39 38 38 38 38 37 37 37 37 36 36 36 36
36 37 36 36 37 37 37 37 37 37 37 37 37 38 38 39 40 41 41 41 41 41 41 41 42 43 42 42 42 41 40 39 38 39 39 38 38 39 39 39 38 38 37
38 37 36 37 37 38 38 38 38 38 39 38 38 38 38 39 39 39 40 40 40 41 41 42 41 42 42 43 43 43 42 42 40 40 40 40 40 40 40 40 40 39 39
38 38 38 38 38 38 39 39 38 39 39 39 39 39 38 38 39 40 40 40 40 41 41 41 41 41 42 42 42 43 43 43 43 42 42 41 41 41 41 42 41 41 40
38 38 38 38 38 38 39 39 39 39 39 38 38 38 39 39 39 40 41 40 40 40 41 42 42 41 42 42 42 42 42 43 43 44 43 43 44 44 44 43 43 42 42
37 38 38 38 38 39 39 39 39 39 39 39 38 38 38 38 39 39 40 40 40 40 41 42 42 43 43 43 43 43 44 45 44 44 44 44 45 45 45 46 45 44 44
Wind_Direction
243 238 236 234 231 230 230 231 230 227 223 220 217 216 216 215 211 210 214 218 222 228 225 222 216 216 217 221 226 231 240 246 231 215 218 225 224 218 217 218 223 226 234
244 240 239 236 233 232 233 234 236 233 229 227 227 225 224 223 221 219 221 225 225 228 229 229 229 230 230 233 236 237 242 248 250 251 242 241 245 240 238 236 239 241 246
245 242 241 239 236 235 237 239 240 239 237 235 233 231 232 230 230 229 230 231 231 229 230 233 235 239 238 240 243 242 244 248 253 258 256 258 252 248 245 242 249 250 254
245 244 242 240 239 239 240 242 243 243 241 242 240 239 238 236 235 234 236 236 236 234 234 236 238 240 242 243 246 247 247 251 255 258 259 261 256 259 255 252 253 253 255
245 244 242 242 241 242 243 244 246 246 245 246 245 244 242 240 238 238 238 238 240 238 237 238 240 242 243 246 249 250 249 251 255 258 259 257 260 263 265 262 260 257 257
246 245 243 243 243 243 245 247 249 250 250 248 246 247 245 241 239 241 241 241 242 242 240 240 242 245 246 248 250 251 252 253 254 257 259 260 263 265 267 263 263 262 259
248 247 245 245 245 245 247 249 251 254 255 252 250 250 248 244 241 241 244 243 244 245 244 243 244 247 248 249 250 252 253 255 256 258 261 263 264 266 266 265 267 265 260
247 247 246 246 248 248 250 251 254 256 256 256 254 252 249 246 244 243 244 246 245 246 247 246 246 247 249 251 253 254 254 256 256 259 262 264 265 266 267 267 267 267 267
247 247 245 246 249 250 251 253 255 257 257 257 256 254 253 249 245 245 245 247 247 247 248 249 249 251 252 253 254 255 256 257 258 259 261 264 265 266 267 268 267 268 270
248 248 248 248 250 251 252 254 256 258 258 258 257 255 253 251 247 246 246 247 248 247 247 250 250 252 253 254 256 256 256 256 258 260 262 264 265 266 268 269 268 268 269
250 251 252 252 252 252 254 254 256 258 259 259 257 256 254 253 250 248 247 247 248 249 249 250 250 251 253 254 256 256 257 258 259 261 263 264 265 267 269 270 270 269 270
251 253 254 255 254 254 255 256 257 259 259 259 258 257 256 253 251 250 248 248 248 249 249 250 251 252 253 254 255 256 257 258 260 262 263 264 266 267 269 271 271 271 271
252 253 254 255 255 256 257 257 257 258 259 259 258 258 257 255 252 250 249 248 248 249 250 251 252 253 254 255 256 256 257 258 260 262 264 266 267 267 269 271 272 272 273
251 252 253 254 256 257 258 259 258 258 259 260 258 257 257 256 254 252 250 249 249 249 250 251 252 253 254 257 257 257 257 259 261 263 264 266 267 268 269 271 272 273 273
252 253 254 254 255 255 257 258 258 258 259 260 258 257 257 257 256 254 251 249 250 250 250 250 253 254 255 257 258 258 258 259 261 263 264 265 266 268 270 271 272 273 273
254 254 255 255 255 255 256 257 258 259 259 259 258 258 258 258 256 254 252 251 251 251 251 251 253 254 256 257 259 260 260 260 262 263 264 264 266 267 269 270 271 273 273
255 255 256 257 257 257 257 257 258 259 260 259 258 258 259 258 256 254 253 252 251 252 252 252 253 255 257 258 260 261 260 261 262 263 263 264 265 266 268 269 270 271 272
256 256 256 258 258 258 258 259 259 259 260 260 259 259 259 259 257 255 253 252 252 253 253 253 254 255 257 258 260 261 260 260 261 262 263 264 266 267 268 268 270 270 272
256 257 257 258 259 259 260 261 260 260 262 262 260 259 259 258 257 256 254 253 253 253 253 254 255 255 257 258 259 259 260 260 261 261 263 265 266 267 268 269 269 270 272
256 256 257 258 259 260 262 262 261 261 262 263 262 260 259 258 257 255 255 255 253 253 253 254 255 255 256 257 258 259 259 260 260 261 263 265 266 268 269 270 270 270 272
256 257 259 259 259 260 261 263 262 262 262 263 263 261 259 257 255 255 255 255 254 253 253 254 255 255 257 257 257 258 259 259 260 261 263 264 266 267 269 270 271 271 272
258 259 260 260 260 261 262 262 263 262 263 263 262 260 259 257 255 254 255 255 255 254 253 254 255 255 256 256 257 257 257 258 260 261 262 265 266 267 269 269 270 271 271
258 259 260 260 261 262 262 262 263 262 262 261 260 259 259 257 255 254 254 255 256 255 254 254 254 255 255 257 257 257 258 257 258 260 262 264 266 267 269 270 270 271 271
259 259 259 259 260 261 262 262 262 263 262 260 259 259 258 257 255 255 255 255 256 256 254 254 255 256 257 258 257 257 258 258 258 260 262 263 266 268 270 271 270 270 271
260 260 259 259 261 262 263 263 262 262 262 260 259 259 259 258 256 255 254 255 255 255 254 254 255 256 257 257 258 258 258 259 260 261 261 262 265 268 269 270 269 270 271
260 261 261 260 261 263 263 263 263 262 262 260 259 259 259 258 257 256 256 256 256 255 254 254 254 255 256 257 258 259 260 260 261 262 262 263 265 266 269 270 270 269 269
Height
5849 5849 5850 5851 5851 5852 5852 5853 5853 5854 5854 5854 5855 5855 5855 5856 5856 5856 5857 5857 5857 5858 5858 5858 5858 5858 5858 5858 5858 5858 5858 5858 5858 5858 5858 5858 5858 5858 5858 5858 5859 5859 5859
5846 5847 5848 5848 5849 5850 5851 5851 5852 5852 5853 5853 5853 5854 5854 5855 5855 5855 5855 5856 5856 5857 5857 5857 5857 5857 5857 5857 5858 5858 5858 5858 5858 5858 5858 5857 5858 5858 5858 5858 5858 5858 5858
5843 5844 5845 5846 5847 5848 5849 5849 5850 5851 5851 5851 5852 5852 5853 5853 5853 5854 5854 5854 5855 5855 5855 5856 5856 5856 5856 5856 5856 5857 5857 5857 5857 5857 5857 5857 5857 5857 5857 5857 5857 5857 5857
5840 5841 5842 5843 5844 5845 5846 5847 5848 5848 5849 5849 5850 5850 5850 5851 5851 5852 5852 5853 5853 5853 5854 5854 5854 5855 5855 5855 5855 5855 5855 5856 5856 5856 5856 5856 5856 5856 5856 5856 5856 5856 5856
5837 5838 5839 5840 5842 5842 5844 5844 5845 5846 5846 5847 5847 5847 5847 5848 5848 5849 5850 5850 5851 5851 5852 5852 5853 5853 5853 5853 5853 5854 5854 5854 5854 5854 5854 5854 5854 5854 5854 5854 5854 5854 5854
5833 5834 5836 5837 5838 5839 5840 5841 5842 5842 5843 5843 5843 5844 5844 5845 5845 5846 5847 5848 5848 5849 5849 5850 5851 5851 5851 5851 5851 5852 5852 5852 5852 5852 5852 5852 5852 5853 5853 5853 5852 5852 5852
5829 5830 5832 5833 5834 5836 5837 5837 5838 5839 5839 5839 5839 5840 5840 5841 5842 5842 5843 5844 5845 5846 5846 5847 5848 5848 5849 5849 5849 5849 5849 5850 5850 5850 5850 5850 5850 5850 5850 5850 5850 5850 5850
5824 5826 5827 5829 5830 5832 5833 5833 5834 5835 5835 5835 5835 5835 5836 5836 5837 5838 5839 5840 5841 5842 5843 5844 5845 5845 5846 5846 5846 5847 5847 5847 5847 5847 5847 5847 5847 5848 5848 5848 5847 5847 5847
5820 5821 5823 5824 5826 5827 5828 5829 5830 5830 5830 5830 5830 5831 5831 5832 5833 5834 5835 5836 5837 5838 5839 5840 5841 5842 5842 5843 5843 5843 5843 5844 5844 5844 5844 5844 5844 5844 5845 5844 5844 5844 5844
5815 5817 5818 5820 5821 5822 5823 5824 5825 5825 5825 5825 5825 5826 5826 5827 5828 5829 5830 5831 5833 5834 5835 5836 5837 5838 5838 5839 5839 5840 5840 5840 5840 5840 5840 5841 5841 5841 5841 5841 5841 5841 5840
5811 5812 5813 5815 5816 5817 5818 5819 5819 5820 5820 5820 5820 5820 5821 5821 5823 5824 5825 5827 5828 5829 5830 5832 5832 5833 5834 5835 5835 5836 5836 5836 5836 5836 5836 5837 5837 5837 5837 5837 5837 5837 5836
5806 5807 5808 5809 5811 5812 5813 5813 5814 5814 5814 5814 5814 5815 5815 5816 5817 5818 5820 5821 5823 5824 5825 5827 5827 5828 5829 5830 5831 5831 5831 5832 5832 5832 5832 5832 5832 5832 5832 5832 5832 5832 5832
5800 5801 5803 5804 5805 5806 5807 5807 5808 5808 5808 5808 5808 5809 5809 5810 5811 5812 5814 5815 5817 5819 5820 5821 5822 5823 5824 5825 5826 5826 5827 5827 5827 5827 5828 5828 5828 5828 5828 5828 5827 5827 5827
5793 5795 5796 5798 5799 5800 5800 5801 5801 5801 5802 5802 5802 5803 5803 5804 5805 5806 5808 5809 5811 5813 5814 5815 5816 5817 5818 5819 5820 5821 5821 5822 5822 5822 5823 5823 5823 5823 5822 5822 5822 5822 5822
5787 5788 5789 5791 5792 5793 5793 5794 5794 5794 5795 5795 5795 5796 5797 5798 5799 5800 5801 5803 5804 5806 5808 5809 5810 5811 5812 5813 5814 5815 5815 5816 5816 5816 5817 5817 5817 5817 5817 5817 5817 5816 5816
5780 5781 5782 5783 5784 5785 5786 5786 5787 5787 5788 5788 5788 5789 5790 5791 5792 5793 5794 5796 5797 5799 5801 5802 5804 5805 5806 5807 5807 5808 5809 5809 5809 5810 5810 5810 5810 5810 5811 5810 5810 5810 5809
5772 5773 5775 5776 5777 5777 5778 5778 5779 5779 5780 5781 5781 5782 5783 5783 5784 5786 5787 5788 5790 5792 5793 5795 5796 5797 5798 5799 5800 5801 5802 5802 5802 5803 5803 5803 5804 5804 5804 5804 5803 5803 5803
5765 5766 5767 5768 5769 5769 5770 5770 5771 5771 5772 5773 5773 5774 5774 5775 5776 5777 5779 5780 5782 5784 5785 5787 5788 5790 5791 5792 5792 5793 5794 5794 5795 5795 5796 5796 5796 5796 5796 5796 5796 5796 5795
5757 5758 5758 5759 5760 5761 5762 5762 5762 5763 5763 5764 5764 5765 5766 5766 5767 5769 5770 5772 5773 5775 5777 5778 5780 5781 5782 5783 5784 5784 5785 5786 5787 5787 5788 5788 5789 5789 5789 5788 5788 5788 5787
5748 5749 5749 5751 5752 5752 5753 5753 5753 5754 5754 5754 5755 5756 5757 5757 5758 5760 5761 5763 5764 5766 5768 5769 5771 5772 5773 5774 5775 5776 5777 5777 5778 5779 5780 5780 5780 5781 5780 5780 5780 5779 5779
5739 5740 5740 5741 5742 5743 5744 5744 5744 5745 5745 5745 5745 5746 5747 5748 5749 5750 5752 5753 5755 5756 5758 5760 5761 5762 5764 5765 5766 5767 5768 5769 5769 5770 5771 5772 5772 5772 5772 5771 5771 5771 5770
5729 5730 5731 5732 5732 5733 5734 5734 5734 5735 5735 5735 5735 5735 5736 5737 5739 5740 5742 5744 5745 5746 5748 5750 5751 5753 5754 5755 5757 5757 5759 5761 5761 5761 5762 5762 5763 5763 5763 5762 5762 5762 5761
5720 5721 5721 5722 5722 5723 5723 5724 5724 5724 5724 5724 5725 5725 5726 5727 5729 5730 5732 5733 5735 5736 5738 5740 5742 5743 5744 5746 5747 5748 5750 5751 5752 5752 5752 5753 5753 5753 5753 5753 5752 5752 5751
5710 5711 5711 5712 5712 5713 5713 5713 5713 5714 5714 5714 5715 5715 5716 5717 5718 5720 5722 5723 5725 5726 5728 5730 5732 5733 5735 5736 5737 5738 5740 5741 5742 5743 5743 5743 5743 5743 5743 5742 5742 5742 5741
5699 5700 5701 5701 5702 5702 5702 5703 5703 5703 5704 5704 5705 5706 5707 5707 5708 5710 5712 5713 5715 5716 5718 5720 5722 5723 5725 5726 5727 5728 5729 5730 5731 5732 5733 5733 5733 5732 5732 5731 5731 5731 5730
5689 5690 5691 5691 5691 5692 5692 5692 5693 5693 5694 5694 5695 5696 5697 5698 5699 5700 5702 5704 5705 5707 5709 5711 5712 5714 5715 5716 5718 5718 5719 5720 5721 5721 5722 5722 5722 5721 5720 5720 5719 5719 5719